[[{"header":{"parameterUnit":"m.s-1","parameterCategory":1,"la1":30.2991,"la2":30.254,"lo1":-89.0895,"lo2":-89.0444,"dy":0.0017,"dx":0.0017,"nx":28,"ny":28,"refTime":"2024-08-05T21:00:00:Z","depth":0,"parameterNumber":2,"parameterNumberName":"U-component_of_WINDS"},"data":[0,0,0,0,0,0,0,0,0,0,0,0,0,0,0,0,0,0,0,0,0,0,0,0,0,0,0,0,0,0,0,0,0,0,0,0,0,0,0,0,0,0,0,0,0,0,0,0,0,0,0,0,0,0,0,0,0,0,1.6641,1.6642,0,1.6717,1.6718,1.6719,1.6705,1.6704,1.6702,1.6701,1.6781,1.6785,1.6788,0,0,0,0,0,0,0,0,0,0,0,0,0,1.6487,1.6489,1.6641,1.6642,1.6643,1.6717,1.6718,1.6719,1.6705,1.6704,1.6702,1.67,1.678,1.6784,1.6788,0,0,0,0,0,0,0,0,0,0,0,0,0,1.6557,1.649,1.6641,1.6645,1.6646,1.6717,1.6718,1.6719,1.6706,1.6704,1.6702,1.67,1.6779,1.6784,1.6789,1.6861,0,0,1.6804,1.6807,0,0,0,0,0,0,0,0,1.6553,1.6563,1.6643,1.6645,1.6646,1.6699,1.6693,1.6767,1.6706,1.6683,1.6701,1.6699,1.6756,1.6763,1.6782,1.6865,1.6868,1.6805,1.6808,1.681,1.6812,0,0,0,0,0,0,0,1.6548,1.656,1.6671,1.6644,1.6646,1.6644,1.6652,1.6707,1.673,1.6685,1.6684,1.6693,1.6756,1.6777,1.6783,1.6869,1.6805,1.6809,1.6812,1.6814,1.7019,1.7021,0,0,0,0,0,0,1.6542,1.6556,1.6669,1.6673,1.6594,1.6648,1.6657,1.6684,1.6729,1.6734,1.6695,1.6692,1.6769,1.6777,1.6786,1.6876,1.681,1.6815,1.6818,1.7017,1.7019,1.7022,0,0,0,0,0,0,1.6539,1.6552,1.6666,1.6614,1.6629,1.6653,1.6684,1.6687,1.6707,1.6737,1.6741,1.6711,1.6768,1.6779,1.6843,1.6878,1.6817,1.6822,1.7014,1.7017,1.7021,1.7055,0,0,0,0,0,0,1.6534,1.6551,1.6578,1.6615,1.6631,1.672,1.6686,1.669,1.6716,1.6713,1.6753,1.6758,1.6767,1.6836,1.6848,1.6884,1.6826,1.7011,1.7015,1.702,1.7051,1.7059,1.7066,0,0,0,0,0,1.6529,1.6584,1.6579,1.6593,1.6665,1.6722,1.6732,1.674,1.6719,1.6747,1.6766,1.6757,1.6872,1.6842,1.6856,1.6895,1.7009,1.7014,1.7019,1.7047,1.7057,1.7066,0,0,0,0,0,0,1.6551,1.6589,1.6584,1.6653,1.6685,1.672,1.6755,1.675,1.6789,1.6785,1.6795,1.6804,1.687,1.6888,1.6854,1.6968,1.6938,1.6946,1.6954,1.6964,1.6971,1.6966,1.683,0,0,0,0,0,1.6564,1.6606,1.6637,1.6695,1.6711,1.6731,1.6756,1.676,1.6793,1.6806,1.683,1.6864,1.6908,1.6937,1.6978,1.7053,1.7063,1.7086,1.7094,1.71,1.7108,1.7151,1.7163,1.704,1.704,1.7039,0,0,1.6591,1.6617,1.6643,1.67,1.6725,1.677,1.6742,1.679,1.6824,1.6814,1.6877,1.6895,1.6933,1.7004,1.7036,1.7021,1.7144,1.7107,1.7112,1.7116,1.7158,1.717,1.718,1.7043,1.7043,1.7042,0,0,1.6663,1.6686,1.6738,1.6764,1.6802,1.6815,1.6827,1.6864,1.6876,1.6939,1.6933,1.6974,1.7049,1.7077,1.7101,1.7186,1.718,1.72,1.7241,1.7283,1.7293,1.7302,1.7335,1.7346,1.7207,1.7207,1.7207,0,1.6693,1.6759,1.6766,1.6815,1.6842,1.6834,1.6888,1.6913,1.6963,1.6982,1.6965,1.706,1.7085,1.7163,1.7184,1.7203,1.7219,1.7196,1.7291,1.73,1.7308,1.734,1.7352,1.7209,1.7209,1.7209,1.7209,0,1.6794,1.6841,1.6878,1.6927,1.6957,1.7009,1.7025,1.7055,1.7056,1.7072,1.7137,1.7167,1.7216,1.7234,1.7236,1.7313,1.7303,1.7288,1.7258,1.7322,1.7352,1.7364,1.7213,1.7212,1.7211,1.721,0,0,1.6884,1.6936,1.695,1.6973,1.7015,1.7052,1.7103,1.7151,1.7178,1.7213,1.7258,1.7322,1.7309,1.7337,1.7342,1.7378,1.7447,1.7359,1.7361,1.7377,1.7538,1.755,1.7564,1.7443,1.7445,1.7447,1.7535,0,1.6962,1.7053,1.7061,1.7143,1.7188,1.7182,1.7227,1.7259,1.7275,1.7315,1.7333,1.738,1.7357,1.7375,1.741,1.7431,1.748,1.7425,1.7487,1.7489,1.748,1.7579,1.7592,1.7674,1.7547,1.7549,1.755,0,1.7066,1.7104,1.7191,1.7228,1.7247,1.7288,1.7333,1.7372,1.7408,1.7417,1.7449,1.7449,1.7505,1.7471,1.7549,1.7511,1.7537,1.7551,1.7555,1.7563,1.7525,1.7592,1.77,1.7713,1.7568,1.7567,1.7565,0,1.7125,1.7198,1.726,1.728,1.7324,1.7354,1.7374,1.7408,1.7437,1.7477,1.7496,1.7542,1.7568,1.7604,1.7618,1.7591,1.7696,1.7663,1.7707,1.7707,1.773,1.7729,1.7847,1.7744,1.7743,1.7743,1.7743,0,1.7213,1.7267,1.7288,1.7326,1.7387,1.7396,1.7457,1.7475,1.7506,1.755,1.7547,1.7588,1.7602,1.7646,1.7657,1.7721,1.7732,1.7743,1.7745,1.7744,1.7743,1.7763,1.7758,1.7747,1.7746,1.7745,1.7745,0,1.729,1.7306,1.7373,1.741,1.7421,1.7465,1.7497,1.7535,1.755,1.7605,1.7619,1.7643,1.7695,1.7712,1.7774,1.7782,1.7857,1.7854,1.7845,1.7846,1.789,1.7887,1.8026,1.8046,1.7928,1.7929,1.793,0,1.7346,1.7388,1.7429,1.7458,1.7479,1.7525,1.7555,1.7566,1.7597,1.7643,1.7676,1.7727,1.7768,1.7851,1.7876,1.7924,1.7923,1.7969,1.7931,1.7929,1.7927,1.7925,1.7931,1.7976,1.7978,1.7979,1.7979,0,1.7445,1.7451,1.7493,1.7539,1.7574,1.7611,1.7646,1.767,1.7687,1.7722,1.7775,1.7807,1.7871,1.7923,1.7972,1.7994,1.7991,1.7991,1.8004,1.8005,1.7999,1.8005,1.7867,1.7988,1.7987,1.7987,1.7986,1.7986,1.7515,1.7553,1.7589,1.7636,1.7664,1.7697,1.7736,1.7756,1.78,1.7852,1.7856,1.7914,1.7951,1.8018,1.8042,1.8089,1.8076,1.8095,1.81,1.8105,1.811,1.799,1.8098,1.8097,1.8097,1.8097,1.8097,0,1.7616,1.7639,1.7683,1.7733,1.7771,1.7762,1.7802,1.7835,1.7885,1.792,1.7961,1.8023,1.8073,1.8102,1.8153,1.8184,1.8184,1.8198,1.8197,1.8203,1.8117,1.8101,1.8197,1.8197,1.8197,1.8197,1.8197,1.8197,1.7673,1.7737,1.7748,1.7826,1.7849,1.7905,1.7928,1.796,1.7988,1.8057,1.8098,1.8116,1.8149,1.8203,1.825,1.8257,1.8277,1.8292,1.8299,1.8218,1.8208,1.8198,1.8184,1.8296,1.8296,1.8381,1.8382,1.8382]},{"header":{"parameterUnit":"m.s-1","parameterCategory":1,"la1":30.2991,"la2":30.254,"lo1":-89.0895,"lo2":-89.0444,"dy":0.0017,"dx":0.0017,"nx":28,"ny":28,"refTime":"2024-08-05T21:00:00:Z","depth":0,"parameterNumber":3,"parameterNumberName":"V-component_of_WINDS"},"data":[0,0,0,0,0,0,0,0,0,0,0,0,0,0,0,0,0,0,0,0,0,0,0,0,0,0,0,0,0,0,0,0,0,0,0,0,0,0,0,0,0,0,0,0,0,0,0,0,0,0,0,0,0,0,0,0,0,0,-1.6526,-1.6527,0,-1.6606,-1.6606,-1.6607,-1.6624,-1.6623,-1.6623,-1.6622,-1.6702,-1.6705,-1.6708,0,0,0,0,0,0,0,0,0,0,0,0,0,-1.6389,-1.6391,-1.6526,-1.6527,-1.6528,-1.6605,-1.6607,-1.6608,-1.6624,-1.6623,-1.6623,-1.6622,-1.6701,-1.6705,-1.6708,0,0,0,0,0,0,0,0,0,0,0,0,0,-1.6456,-1.6392,-1.6526,-1.6546,-1.6548,-1.6605,-1.6607,-1.6608,-1.6624,-1.6623,-1.6622,-1.6622,-1.67,-1.6704,-1.6708,-1.6751,0,0,-1.6721,-1.6722,0,0,0,0,0,0,0,0,-1.6452,-1.6461,-1.6542,-1.6544,-1.6547,-1.6604,-1.6587,-1.6656,-1.6624,-1.6595,-1.6622,-1.6621,-1.667,-1.6677,-1.6693,-1.6755,-1.6758,-1.6721,-1.6723,-1.6725,-1.6726,0,0,0,0,0,0,0,-1.6448,-1.6458,-1.6558,-1.6543,-1.6546,-1.6551,-1.6559,-1.66,-1.6637,-1.6598,-1.6599,-1.6608,-1.6672,-1.669,-1.6695,-1.6759,-1.6721,-1.6724,-1.6727,-1.6728,-1.686,-1.6861,0,0,0,0,0,0,-1.644,-1.6454,-1.6555,-1.656,-1.6497,-1.6554,-1.6563,-1.6587,-1.6636,-1.6643,-1.6609,-1.6609,-1.6683,-1.6691,-1.6698,-1.6752,-1.6725,-1.6729,-1.6731,-1.6859,-1.686,-1.6861,0,0,0,0,0,0,-1.6437,-1.6448,-1.6552,-1.6507,-1.6521,-1.6557,-1.6583,-1.6589,-1.6607,-1.6645,-1.6651,-1.6621,-1.6683,-1.6693,-1.6738,-1.6755,-1.6731,-1.6734,-1.6858,-1.6859,-1.6861,-1.6859,0,0,0,0,0,0,-1.6433,-1.6447,-1.6464,-1.6508,-1.6523,-1.659,-1.6584,-1.6591,-1.6614,-1.6614,-1.6658,-1.6664,-1.6683,-1.6732,-1.6742,-1.676,-1.6737,-1.6856,-1.6858,-1.686,-1.6857,-1.686,-1.6862,0,0,0,0,0,-1.6428,-1.646,-1.6465,-1.6477,-1.6545,-1.6591,-1.66,-1.6621,-1.6615,-1.6632,-1.6657,-1.6663,-1.6751,-1.6736,-1.6748,-1.6767,-1.6855,-1.6858,-1.686,-1.6856,-1.686,-1.6862,0,0,0,0,0,0,-1.6416,-1.6466,-1.6472,-1.6519,-1.6551,-1.6594,-1.6616,-1.6624,-1.6658,-1.6657,-1.6682,-1.6691,-1.6735,-1.6756,-1.6738,-1.6812,-1.6803,-1.6808,-1.6796,-1.68,-1.6802,-1.6796,-1.6741,0,0,0,0,0,-1.6419,-1.6453,-1.6494,-1.6532,-1.6548,-1.6579,-1.66,-1.6614,-1.6648,-1.6661,-1.6689,-1.6721,-1.6757,-1.6779,-1.6814,-1.6861,-1.6871,-1.688,-1.6882,-1.6884,-1.6888,-1.6915,-1.6919,-1.6869,-1.6869,-1.6869,0,0,-1.6426,-1.6457,-1.6477,-1.6531,-1.6557,-1.6591,-1.659,-1.6626,-1.6652,-1.6667,-1.6711,-1.6733,-1.6771,-1.6817,-1.6839,-1.6836,-1.6904,-1.6887,-1.6889,-1.6891,-1.6918,-1.6922,-1.6927,-1.6871,-1.6871,-1.6871,0,0,-1.6455,-1.6482,-1.6517,-1.6544,-1.6584,-1.6604,-1.6613,-1.6655,-1.667,-1.6715,-1.6727,-1.6758,-1.6818,-1.6845,-1.6866,-1.6907,-1.6914,-1.6918,-1.693,-1.6956,-1.696,-1.6964,-1.6978,-1.6983,-1.6921,-1.6921,-1.6921,0,-1.6458,-1.651,-1.6533,-1.657,-1.6593,-1.6609,-1.6644,-1.6668,-1.6718,-1.6733,-1.6729,-1.6806,-1.6832,-1.6885,-1.6895,-1.6912,-1.6923,-1.6912,-1.6958,-1.6961,-1.6965,-1.6979,-1.6985,-1.6922,-1.6922,-1.6922,-1.6921,0,-1.6512,-1.6548,-1.6572,-1.6619,-1.6646,-1.6681,-1.6709,-1.6733,-1.6745,-1.6766,-1.6812,-1.6845,-1.6887,-1.69,-1.6912,-1.6955,-1.6952,-1.6953,-1.6945,-1.697,-1.6983,-1.6989,-1.6922,-1.6922,-1.6922,-1.6922,0,0,-1.6535,-1.6596,-1.6604,-1.6627,-1.6672,-1.6701,-1.6737,-1.6779,-1.6799,-1.6832,-1.6863,-1.6915,-1.6916,-1.694,-1.6955,-1.6978,-1.7008,-1.6975,-1.6977,-1.698,-1.7058,-1.7057,-1.7063,-1.7013,-1.7014,-1.7015,-1.7055,0,-1.657,-1.6636,-1.6658,-1.6713,-1.6747,-1.6762,-1.6794,-1.6826,-1.6847,-1.6879,-1.6902,-1.6938,-1.6936,-1.6951,-1.6974,-1.6999,-1.7024,-1.6997,-1.7042,-1.7044,-1.7032,-1.707,-1.7069,-1.7105,-1.706,-1.7061,-1.7062,0,-1.6619,-1.6654,-1.6712,-1.6755,-1.677,-1.6798,-1.6838,-1.6868,-1.6905,-1.6918,-1.6946,-1.696,-1.6999,-1.6989,-1.7043,-1.7024,-1.7044,-1.7059,-1.7061,-1.7066,-1.7054,-1.7076,-1.7117,-1.7122,-1.7071,-1.707,-1.7069,0,-1.663,-1.6692,-1.6735,-1.6753,-1.6804,-1.6823,-1.6845,-1.6881,-1.6905,-1.694,-1.6955,-1.6994,-1.7016,-1.7046,-1.7069,-1.706,-1.7121,-1.7113,-1.7134,-1.7133,-1.7145,-1.7144,-1.719,-1.7159,-1.7159,-1.7158,-1.7158,0,-1.6667,-1.6701,-1.6741,-1.6767,-1.6807,-1.6832,-1.6871,-1.6893,-1.6925,-1.6956,-1.6972,-1.7001,-1.7031,-1.7064,-1.7083,-1.7124,-1.7134,-1.7146,-1.7151,-1.7144,-1.7143,-1.7157,-1.7155,-1.716,-1.716,-1.7159,-1.7159,0,-1.6685,-1.6713,-1.6761,-1.6805,-1.6817,-1.6844,-1.6882,-1.6908,-1.6931,-1.697,-1.698,-1.7015,-1.7055,-1.7082,-1.7132,-1.7145,-1.719,-1.7194,-1.7178,-1.718,-1.7199,-1.7196,-1.7255,-1.7264,-1.7227,-1.7227,-1.7228,0,-1.6706,-1.6734,-1.6781,-1.6803,-1.6825,-1.6861,-1.6885,-1.6912,-1.6937,-1.6981,-1.7002,-1.7042,-1.7076,-1.7139,-1.7168,-1.7207,-1.7212,-1.723,-1.7218,-1.7211,-1.7212,-1.721,-1.7213,-1.7232,-1.7232,-1.7232,-1.7233,0,-1.6741,-1.6754,-1.6788,-1.6828,-1.6857,-1.689,-1.6923,-1.694,-1.6972,-1.6999,-1.704,-1.7067,-1.7119,-1.7159,-1.7201,-1.7223,-1.7233,-1.7236,-1.7243,-1.7237,-1.7226,-1.7232,-1.7183,-1.7235,-1.7234,-1.7234,-1.7234,-1.7234,-1.6761,-1.6786,-1.6824,-1.6862,-1.689,-1.6921,-1.6948,-1.6974,-1.7008,-1.7053,-1.7066,-1.7109,-1.7145,-1.7203,-1.7226,-1.726,-1.7258,-1.7268,-1.727,-1.7272,-1.7272,-1.7221,-1.7268,-1.7268,-1.7268,-1.7268,-1.7268,0,-1.6796,-1.6822,-1.6857,-1.6903,-1.6933,-1.6941,-1.6978,-1.7002,-1.704,-1.7073,-1.7106,-1.7154,-1.7193,-1.7226,-1.7267,-1.7288,-1.7293,-1.7297,-1.7296,-1.7301,-1.7271,-1.7261,-1.7292,-1.7292,-1.7292,-1.7292,-1.7292,-1.7292,-1.6818,-1.6861,-1.6878,-1.6935,-1.6961,-1.7003,-1.7023,-1.7051,-1.7078,-1.713,-1.7163,-1.7185,-1.7219,-1.7262,-1.7299,-1.7307,-1.7322,-1.7325,-1.7334,-1.7306,-1.7303,-1.73,-1.7291,-1.7327,-1.7328,-1.7361,-1.7362,-1.7362]}]]